Date,TemperatureHighF,TemperatureAvgF,TemperatureLowF,DewpointHighF,DewpointAvgF,DewpointLowF,HumidityHigh,HumidityAvg,HumidityLow,PressureMaxIn,PressureMinIn,WindSpeedMaxMPH,WindSpeedAvgMPH,GustSpeedMaxMPH,PrecipitationSumIn
2013-1-1,23.2,19.7,13.6,18.7,15.5,11.5,92,84,74,30.11,29.96,9,1,10,0.00
2013-1-2,25.2,22.1,14.4,22.5,18.9,10.4,93,87,75,30.10,29.96,10,1,11,0.00
2013-1-3,29.5,25.6,21.7,25.2,22.0,17.4,93,86,75,30.06,29.88,25,3,25,0.00
2013-1-4,33.6,29.5,27.1,27.9,25.0,22.6,90,83,71,30.06,29.77,27,5,30,0.00
2013-1-5,37.2,30.9,26.2,28.8,24.8,21.6,89,78,64,30.17,29.81,10,2,10,0.00
2013-1-6,34.3,29.9,26.2,30.6,26.5,21.2,95,87,80,30.22,29.76,18,2,18,0.00
2013-1-7,40.6,32.6,24.3,30.7,25.2,20.8,87,75,58,30.23,29.83,31,6,34,0.00
2013-1-8,44.2,35.7,31.6,33.6,30.6,28.0,91,82,63,30.11,29.90,16,3,18,0.00
2013-1-9,39.7,36.6,32.4,34.0,28.8,25.0,84,73,64,30.37,29.75,22,4,22,0.00
2013-1-10,42.3,33.9,26.1,30.2,26.9,23.4,90,76,58,30.52,30.13,13,2,13,0.00
2013-1-11,44.1,38.8,34.2,43.9,37.7,29.8,99,96,80,30.13,29.62,13,2,13,0.43
2013-1-12,53.2,43.8,36.0,45.7,39.1,30.6,99,84,56,29.91,29.58,24,4,29,0.01
2013-1-13,36.1,31.6,28.0,32.2,30.3,26.6,97,95,80,29.90,29.80,12,1,12,0.03
2013-1-14,28.0,22.3,18.9,26.8,18.3,12.9,95,85,63,30.33,29.90,13,2,13,0.00
2013-1-15,27.9,22.7,14.2,20.1,16.0,9.1,87,75,62,30.35,30.02,17,4,18,0.00
2013-1-16,30.7,25.9,18.9,29.1,21.9,12.0,97,85,73,30.02,29.57,28,5,28,0.05
2013-1-17,18.9,13.7,10.8,13.3,7.2,2.3,88,75,62,30.28,29.96,9,2,10,0.00
2013-1-18,28.8,16.8,9.9,27.5,13.0,3.0,96,85,71,30.32,29.73,16,3,16,0.07
2013-1-19,36.3,29.9,26.2,35.6,28.5,24.1,98,95,89,29.81,29.34,13,2,18,0.09
2013-1-20,26.6,14.6,6.8,23.7,9.9,2.3,92,81,67,30.11,29.37,9,3,14,0.09
2013-1-21,14.7,8.3,1.0,8.2,4.6,-1.8,90,85,58,30.06,29.88,13,2,14,0.09
2013-1-22,3.2,1.0,-1.5,0.1,-2.2,-4.9,88,86,80,30.22,30.02,6,1,7,0.04
2013-1-23,15.3,9.3,0.1,11.3,6.3,-2.7,91,87,77,30.24,30.03,15,1,15,0.02
2013-1-24,11.3,3.7,-5.3,8.8,-0.2,-8.9,89,83,71,30.64,30.24,8,2,9,0.00
2013-1-25,20.8,12.6,2.7,16.9,9.5,-0.4,93,87,77,30.48,29.99,13,2,13,0.00
2013-1-26,24.6,16.4,10.8,19.6,13.5,8.6,94,89,76,30.40,30.04,6,0,6,0.00
2013-1-27,30.0,23.5,12.7,26.1,20.2,10.6,95,87,76,30.41,30.08,13,2,13,0.08
2013-1-28,33.4,30.0,26.1,31.5,28.7,24.6,96,95,91,30.08,29.81,9,1,12,0.18
2013-1-29,43.2,36.1,31.3,43.0,35.4,30.0,99,97,94,29.98,29.42,13,2,13,0.30
2013-1-30,36.1,31.8,19.4,36.0,31.2,17.2,99,98,92,29.43,29.05,10,2,11,0.70
2013-1-31,19.0,14.0,10.4,17.4,11.7,7.9,93,90,87,29.82,29.15,7,1,7,0.02
2013-2-1,17.8,13.0,9.7,14.5,10.6,7.3,92,90,80,30.09,29.82,11,1,13,0.03
2013-2-2,16.3,9.9,0.9,11.5,6.9,-1.8,92,88,77,30.06,30.01,9,0,9,0.00
2013-2-3,18.7,10.2,1.2,16.0,7.3,-1.7,92,88,83,30.01,29.79,9,1,9,0.00
2013-2-4,19.2,7.9,-1.1,11.8,3.8,-4.4,91,83,65,29.99,29.92,6,1,6,0.00
2013-2-5,23.4,12.0,-3.5,21.2,9.3,-6.5,92,89,85,29.97,29.67,13,2,13,0.00
2013-2-6,25.2,15.5,3.4,19.6,12.2,0.9,93,87,74,30.25,29.97,8,1,8,0.00
2013-2-7,27.9,23.0,20.7,26.1,21.5,19.0,95,94,92,30.24,30.12,17,4,19,0.17
2013-2-8,22.8,17.7,7.2,20.1,14.4,5.0,94,87,72,30.39,30.12,18,2,18,0.04
2013-2-9,30.4,13.7,-5.8,19.0,8.3,-9.0,92,80,60,30.44,30.22,9,1,10,0.00
2013-2-10,34.5,26.0,14.4,33.3,22.1,11.7,97,86,70,30.22,29.54,17,2,17,0.29
2013-2-11,38.5,33.8,25.5,37.4,32.5,22.8,98,95,89,29.72,29.34,17,4,17,0.33
2013-2-12,29.7,26.5,24.3,24.3,22.8,21.2,92,86,73,29.92,29.72,13,2,14,0.00
2013-2-13,40.5,31.0,26.1,31.5,27.1,22.1,96,86,70,29.82,29.63,15,3,15,0.00
2013-2-14,36.9,31.1,23.9,35.6,29.8,22.1,98,95,90,29.78,29.58,9,2,9,0.08
2013-2-15,24.3,19.6,14.5,22.8,15.4,8.6,94,83,76,30.12,29.78,10,2,10,0.00
2013-2-16,17.4,11.3,3.4,13.6,6.7,0.5,92,82,62,30.15,30.05,10,1,11,0.00
2013-2-17,21.6,11.1,-2.0,11.5,5.7,-4.9,92,79,60,30.20,30.12,9,1,9,0.00
2013-2-18,37.8,25.4,12.9,31.3,17.5,7.7,94,72,55,30.13,29.46,17,4,19,0.04
2013-2-19,39.4,27.6,13.1,38.7,25.6,10.4,98,92,85,29.79,29.15,24,5,27,0.06
2013-2-20,15.3,12.7,9.3,11.5,7.8,4.6,90,81,71,30.30,29.79,11,3,18,0.00
2013-2-21,21.4,13.3,8.2,13.1,8.7,4.6,92,82,64,30.46,30.30,11,2,13,0.00
2013-2-22,30.0,26.5,15.4,28.8,24.9,12.7,96,94,89,30.35,29.81,25,5,25,0.05
2013-2-23,35.2,29.4,26.1,30.9,27.5,25.2,97,93,76,29.82,29.75,10,1,10,0.03
2013-2-24,38.1,28.3,18.1,30.7,24.5,17.2,97,87,59,30.12,29.81,8,1,8,0.00
2013-2-25,36.7,31.7,28.2,28.9,26.9,25.0,91,83,64,30.18,30.12,6,1,7,0.00
2013-2-26,34.2,31.4,27.0,29.5,26.5,23.0,87,82,75,30.17,29.79,30,7,30,0.00
2013-2-27,33.8,32.2,30.6,32.5,30.8,28.4,98,95,82,29.79,29.66,32,7,32,0.03
2013-2-28,33.1,30.1,22.3,32.0,25.0,16.3,97,82,67,30.08,29.69,15,4,21,0.04
2013-3-1,27.0,21.0,16.5,16.3,14.1,12.2,85,75,61,30.22,30.08,11,3,11,0.00
2013-3-2,25.9,18.5,12.6,15.1,12.4,9.0,87,77,60,30.20,30.09,11,2,12,0.00
2013-3-3,24.3,14.5,5.4,13.8,9.3,2.8,93,80,57,30.10,30.04,10,1,12,0.00
2013-3-4,30.4,16.6,3.9,14.2,8.3,1.2,93,72,40,30.17,30.09,8,1,8,0.00
2013-3-5,29.8,21.0,6.6,24.8,16.8,3.6,95,84,73,30.17,30.06,17,3,17,0.00
2013-3-6,39.7,32.4,28.8,32.2,28.5,24.8,95,86,72,30.23,30.09,17,2,17,0.00
2013-3-7,32.4,27.4,22.5,27.3,22.5,19.8,94,82,69,30.43,30.23,8,2,10,0.01
2013-3-8,43.9,28.5,19.0,31.3,25.0,17.4,96,87,57,30.50,30.36,9,1,9,0.00
2013-3-9,46.9,33.3,19.9,32.9,25.3,18.5,96,75,40,30.37,29.97,13,2,16,0.07
2013-3-10,40.5,36.8,34.2,39.9,36.0,32.9,99,97,95,29.97,29.78,10,2,14,0.26
2013-3-11,55.8,39.4,33.6,47.5,38.2,33.4,100,96,71,29.84,29.37,19,3,21,0.51
2013-3-12,33.6,28.3,22.5,33.4,26.9,20.5,99,94,88,29.83,29.41,10,0,10,0.44
2013-3-13,28.0,22.5,17.1,22.3,17.7,14.9,94,82,62,30.17,29.81,10,1,10,0.00
2013-3-14,36.0,25.8,14.0,23.4,17.6,11.3,95,73,43,30.23,29.96,12,2,13,0.00
2013-3-15,34.0,28.9,21.2,30.6,20.9,9.1,97,73,48,29.96,29.80,13,3,13,0.02
2013-3-16,23.9,19.0,15.1,16.0,12.4,7.5,90,76,57,30.02,29.92,16,3,16,0.01
2013-3-17,25.9,17.6,10.0,17.4,8.3,3.9,91,68,42,30.35,30.01,10,2,11,0.00
2013-3-18,38.1,23.9,9.9,28.9,18.2,6.1,96,80,49,30.25,29.50,24,4,25,0.05
2013-3-19,30.0,27.0,22.5,28.9,24.7,19.4,96,91,82,29.77,29.42,22,4,22,0.11
2013-3-20,28.6,23.5,17.1,23.7,19.3,13.8,94,84,66,29.82,29.77,17,2,19,0.00
2013-3-21,29.7,25.6,21.7,24.6,21.0,17.2,94,83,67,29.91,29.78,11,3,11,0.00
2013-3-22,38.5,28.8,20.7,25.7,22.6,16.9,87,78,59,30.04,29.88,7,2,8,0.00
2013-3-23,38.7,29.8,18.7,29.1,23.8,17.1,96,79,57,30.10,30.02,9,2,9,0.00
2013-3-24,36.0,29.7,21.6,26.1,22.8,19.8,94,76,54,30.09,29.85,14,2,14,0.00
2013-3-25,41.7,34.6,30.7,29.8,27.1,24.8,82,74,52,29.96,29.83,20,4,22,0.00
2013-3-26,44.8,37.1,32.5,30.9,27.2,21.7,89,69,41,30.08,29.96,15,2,15,0.00
2013-3-27,45.9,36.3,28.8,29.7,28.0,26.6,92,73,49,30.17,30.06,8,2,10,0.00
2013-3-28,49.5,38.6,29.8,29.7,26.8,21.9,90,65,39,30.24,30.17,12,2,12,0.00
2013-3-29,48.4,35.6,25.2,29.3,24.5,19.8,89,66,34,30.26,30.18,8,1,9,0.00
2013-3-30,52.9,38.3,23.7,37.0,24.0,18.1,92,61,27,30.19,29.78,17,3,18,0.04
2013-3-31,41.2,38.0,27.7,40.3,36.6,20.8,98,95,75,29.78,29.54,15,3,16,0.09
2013-4-1,30.7,24.8,21.6,22.3,16.0,9.7,89,69,46,30.04,29.67,17,4,17,0.00
2013-4-2,32.4,25.5,19.4,21.2,16.6,10.4,92,70,46,30.22,30.01,12,3,14,0.01
2013-4-3,37.6,27.9,17.2,21.7,16.2,12.4,85,63,40,30.40,30.21,14,2,14,0.00
2013-4-4,47.1,34.4,27.3,35.1,25.1,14.5,97,71,42,30.25,29.90,18,4,21,0.05
2013-4-5,38.3,31.9,27.7,29.7,20.4,12.6,92,64,38,30.21,29.99,11,2,11,0.00
2013-4-6,35.1,30.5,24.6,32.4,26.8,20.5,94,86,61,30.21,29.60,20,4,20,0.09
2013-4-7,41.5,37.4,33.8,40.8,33.5,29.5,97,86,70,30.04,29.39,12,3,13,0.05
2013-4-8,42.6,34.7,28.0,36.5,31.9,26.6,97,90,72,30.04,29.81,20,3,20,0.26
2013-4-9,41.7,36.8,33.4,38.5,35.4,31.6,99,95,85,30.09,29.99,8,1,9,0.04
2013-4-10,42.4,35.9,31.5,33.3,30.6,25.2,97,82,59,30.14,30.04,17,3,17,0.00
2013-4-11,36.1,31.2,28.6,28.4,23.0,19.0,94,72,63,30.17,29.88,34,10,35,0.09
2013-4-12,32.2,29.8,27.7,30.9,28.3,24.8,97,94,86,29.89,29.62,32,8,32,0.25
2013-4-13,38.7,32.9,30.7,35.1,30.8,27.7,98,92,73,29.88,29.67,14,2,15,0.09
2013-4-14,44.2,34.5,26.1,30.6,27.4,23.7,92,76,52,30.06,29.88,19,3,21,0.00
2013-4-15,50.0,42.7,34.9,49.5,40.0,28.0,99,90,74,29.98,29.74,33,3,33,0.09
2013-4-16,50.5,41.5,32.4,42.8,32.8,29.8,94,73,50,30.30,29.82,18,2,18,0.02
2013-4-17,44.8,37.0,27.7,35.8,31.4,26.4,97,81,65,30.41,30.11,20,4,21,0.00
2013-4-18,43.9,39.4,36.9,42.8,38.4,34.3,99,96,87,30.11,29.41,18,4,19,0.47
2013-4-19,47.5,38.1,27.0,47.1,34.0,21.6,100,86,65,29.58,29.19,31,6,31,0.17
2013-4-20,35.8,27.9,22.5,22.8,17.9,14.2,92,67,48,30.44,29.58,16,3,16,0.00
2013-4-21,45.5,32.9,18.3,31.8,23.1,13.5,94,70,30,30.61,30.38,16,3,16,0.00
2013-4-22,64.6,46.6,36.5,38.3,32.0,26.2,77,59,27,30.39,30.11,14,3,14,0.00
2013-4-23,57.4,44.4,33.4,46.9,37.1,31.8,97,77,60,30.11,29.80,13,3,14,0.36
2013-4-24,46.9,37.7,32.4,32.4,27.8,19.0,95,70,36,29.98,29.85,10,2,10,0.01
2013-4-25,45.7,37.6,29.8,36.5,29.7,23.9,90,74,49,30.25,29.88,25,3,25,0.01
2013-4-26,59.5,43.0,29.1,42.6,33.3,26.4,94,71,39,30.32,30.12,16,3,16,0.01
2013-4-27,67.3,52.4,40.6,51.1,45.0,37.0,98,78,54,30.20,30.06,13,2,14,0.03
2013-4-28,67.6,53.7,36.3,48.0,41.8,35.2,98,68,35,30.06,29.78,15,3,22,0.00
2013-4-29,67.8,54.6,46.4,55.0,50.6,45.1,98,87,58,29.84,29.78,13,2,13,0.11
2013-4-30,75.4,61.5,50.7,61.2,55.7,50.2,99,83,55,29.87,29.74,22,5,22,0.15
2013-5-1,77.2,63.5,46.2,61.9,53.8,36.7,91,71,56,30.24,29.85,15,3,16,0.00
2013-5-2,65.8,49.1,39.6,47.8,41.0,36.3,90,74,50,30.26,30.10,12,2,13,0.00
2013-5-3,67.8,54.0,37.6,49.6,43.4,36.0,96,70,47,30.16,30.04,14,2,15,0.00
2013-5-4,73.6,60.6,45.9,51.1,44.1,34.2,93,58,28,30.10,30.04,22,3,23,0.00
2013-5-5,73.8,59.1,42.3,46.2,40.5,32.5,93,56,25,30.12,30.00,21,3,22,0.00
2013-5-6,75.6,60.0,42.3,46.9,40.6,33.8,94,54,24,30.08,29.97,15,2,15,0.00
2013-5-7,78.3,59.8,40.6,43.0,36.4,28.9,91,48,20,30.08,29.98,17,3,17,0.00
2013-5-8,78.1,64.5,48.7,47.3,39.0,30.7,70,42,19,30.01,29.91,9,1,9,0.00
2013-5-9,71.6,58.4,44.2,50.7,45.6,36.7,92,65,44,30.01,29.89,15,2,16,0.10
2013-5-10,44.2,39.7,36.3,41.4,37.5,35.2,97,92,85,30.03,29.91,18,4,18,0.73
2013-5-11,51.1,40.0,34.9,43.7,37.0,33.4,98,90,67,29.92,29.66,8,1,11,0.16
2013-5-12,40.1,36.9,33.4,35.8,30.0,26.2,96,77,60,30.01,29.65,11,4,15,0.06
2013-5-13,53.2,41.6,28.9,34.3,27.3,20.1,96,61,33,30.10,30.01,16,2,16,0.00
2013-5-14,64.8,50.3,38.8,46.6,40.1,27.7,94,70,46,30.01,29.62,21,3,21,0.14
2013-5-15,73.2,58.1,43.9,49.5,43.3,35.1,93,62,28,29.71,29.41,7,2,19,0.00
2013-5-16,63.3,54.5,42.6,43.9,41.0,37.9,90,62,43,30.06,29.68,10,2,11,0.00
2013-5-17,68.0,53.1,37.0,45.5,40.7,36.0,97,66,40,30.18,30.05,15,2,16,0.00
2013-5-18,62.1,55.1,44.8,49.1,43.2,39.9,85,65,51,30.18,30.01,12,2,12,0.00
2013-5-19,78.1,65.7,54.9,58.5,51.6,44.1,74,61,47,30.01,29.81,13,2,14,0.00
2013-5-20,69.6,59.2,51.8,60.3,54.8,47.3,98,86,62,29.87,29.70,22,4,22,0.83
2013-5-21,65.8,54.7,49.6,59.5,53.1,49.5,99,95,78,29.81,29.65,20,4,21,0.70
2013-5-22,56.8,53.5,52.0,56.8,53.3,51.6,100,99,98,29.72,29.65,14,2,14,0.59
2013-5-23,52.5,46.2,40.8,52.5,41.1,35.4,100,84,59,30.21,29.72,15,2,17,1.04
2013-5-24,56.3,45.3,34.5,40.1,34.4,29.8,90,67,44,30.37,30.21,11,2,12,0.00
2013-5-25,62.8,48.8,33.6,43.7,37.2,31.6,98,69,34,30.43,30.29,10,1,10,0.00
2013-5-26,66.6,52.8,35.4,42.8,35.3,20.3,97,58,19,30.35,30.20,11,1,11,0.00
2013-5-27,71.2,56.2,38.1,46.4,37.2,28.4,95,56,23,30.23,30.00,14,2,15,0.00
2013-5-28,54.7,51.6,47.8,51.6,45.8,34.0,99,83,48,30.00,29.73,12,2,14,0.53
2013-5-29,65.7,56.7,49.5,61.5,55.2,49.3,100,95,84,29.90,29.71,10,1,10,0.08
2013-5-30,88.5,70.6,54.1,70.0,63.3,53.6,100,80,46,29.91,29.80,18,2,18,0.01
2013-5-31,81.1,71.9,64.8,68.0,64.2,60.8,96,78,54,29.84,29.70,16,3,17,0.02
2013-6-1,77.5,66.5,57.4,67.8,62.6,55.8,99,88,64,29.70,29.59,14,2,16,0.48
2013-6-2,58.5,49.5,37.9,57.9,46.7,36.7,98,90,75,29.97,29.53,12,1,12,0.10
2013-6-3,60.1,48.2,35.4,45.0,38.8,32.9,98,73,38,30.08,29.96,13,1,13,0.00
2013-6-4,64.9,52.7,37.0,45.9,39.6,31.8,95,65,31,30.19,30.08,9,1,9,0.00
2013-6-5,58.1,52.2,46.9,47.8,44.8,41.4,91,76,58,30.19,30.09,15,2,15,0.00
2013-6-6,66.4,56.8,47.8,47.7,42.4,32.0,87,61,32,30.09,29.93,17,4,21,0.00
2013-6-7,71.2,57.8,41.9,50.7,43.4,38.3,93,63,32,29.96,29.86,15,2,15,0.00
2013-6-8,69.1,58.5,46.6,55.6,50.5,41.7,98,77,43,30.03,29.87,7,1,7,0.00
2013-6-9,75.4,62.0,45.7,56.1,51.0,44.6,98,70,39,30.10,29.97,15,2,17,0.00
2013-6-10,67.5,59.3,56.8,59.4,54.3,50.0,98,84,72,29.99,29.80,15,3,15,0.00
2013-6-11,75.0,63.5,57.4,65.1,60.1,55.9,100,90,68,29.84,29.75,10,1,10,0.00
2013-6-12,78.6,63.4,52.0,62.4,54.4,49.6,100,77,39,29.88,29.71,8,1,8,0.00
2013-6-13,74.3,63.2,52.2,59.9,54.6,49.6,93,75,54,29.96,29.68,11,1,11,0.00
2013-6-14,71.1,59.2,46.9,50.7,43.2,24.3,95,61,21,30.10,29.96,10,1,11,0.00
2013-6-15,74.7,60.2,45.9,54.3,48.6,33.3,97,69,29,30.00,29.79,7,1,8,0.01
2013-6-16,74.1,63.4,54.1,66.6,59.0,51.8,100,87,60,29.80,29.68,16,2,16,0.21
2013-6-17,62.6,57.2,52.0,56.1,53.2,50.5,99,87,73,29.99,29.77,12,2,13,0.00
2013-6-18,69.1,57.5,44.8,52.0,45.0,35.6,98,68,35,30.10,29.99,14,2,15,0.00
2013-6-19,74.5,58.7,42.6,52.5,46.0,41.4,98,67,33,30.16,30.07,10,2,11,0.00
2013-6-20,79.5,64.2,48.0,57.2,51.6,44.6,89,66,43,30.12,30.06,13,2,13,0.00
2013-6-21,80.8,65.8,55.0,69.1,61.1,52.7,98,86,60,30.12,29.85,8,1,10,0.05
2013-6-22,70.5,64.5,61.2,66.0,62.6,60.3,100,94,81,30.02,29.89,8,1,9,0.09
2013-6-23,83.5,71.4,61.2,70.7,65.6,60.6,99,84,58,29.99,29.79,15,2,15,0.00
2013-6-24,83.8,75.8,67.5,71.4,69.0,64.9,95,80,63,29.89,29.78,11,2,14,0.00
2013-6-25,79.0,70.4,63.7,71.8,67.2,62.6,99,90,76,29.80,29.74,12,1,12,0.82
2013-6-26,85.3,72.9,61.2,71.4,65.3,60.4,99,79,47,29.77,29.67,11,2,12,0.00
2013-6-27,78.1,69.4,64.8,70.3,66.4,63.7,98,90,74,29.71,29.60,9,1,11,0.01
2013-6-28,72.0,64.7,57.7,65.7,62.5,57.2,99,93,77,29.60,29.54,13,2,13,0.07
2013-6-29,74.3,65.7,58.1,64.0,60.6,57.0,99,84,65,29.74,29.57,13,1,13,0.08
2013-6-30,76.5,66.5,56.5,58.8,51.8,42.6,92,63,33,29.99,29.74,13,1,13,0.00
2013-7-1,70.5,62.5,52.2,55.6,48.1,41.0,89,62,36,30.14,29.99,16,3,18,0.00
2013-7-2,70.9,62.3,49.6,53.8,47.8,38.8,96,63,32,30.13,30.05,13,2,13,0.00
2013-7-3,81.0,66.3,54.0,62.2,54.2,48.0,95,68,39,30.09,29.98,12,2,13,0.00
2013-7-4,75.7,68.0,61.5,66.4,63.5,59.5,98,86,69,30.03,29.96,14,2,14,0.00
2013-7-5,86.4,72.4,60.4,67.5,63.0,58.6,96,75,44,30.01,29.92,10,2,11,0.00
2013-7-6,88.0,74.6,64.6,67.1,62.5,58.5,88,68,38,29.98,29.90,9,2,12,0.00
2013-7-7,84.7,71.8,62.2,71.2,66.0,59.7,96,83,58,29.92,29.85,11,2,11,0.00
2013-7-8,72.9,68.8,65.7,71.2,67.5,65.1,99,96,91,29.93,29.88,10,1,11,0.15
2013-7-9,81.1,71.2,65.7,72.3,68.5,65.5,100,92,71,29.94,29.66,9,1,9,0.57
2013-7-10,71.6,66.9,56.7,70.9,62.6,55.2,99,87,65,29.88,29.58,16,2,16,0.76
2013-7-11,73.6,63.4,52.9,59.7,55.1,50.9,99,77,49,30.06,29.88,8,1,11,0.00
2013-7-12,81.7,66.2,50.4,63.3,55.3,49.3,98,71,42,30.15,30.04,10,2,11,0.00
2013-7-13,84.4,70.0,55.6,64.9,59.2,52.0,94,71,42,30.16,30.07,11,2,11,0.00
2013-7-14,86.2,73.3,61.0,67.8,63.3,58.1,99,73,47,30.20,30.14,9,2,9,0.00
2013-7-15,89.2,75.7,63.1,71.4,66.8,62.2,99,77,47,30.24,30.17,6,1,8,0.00
2013-7-16,91.8,78.9,65.5,74.1,69.9,63.9,99,76,45,30.22,30.10,11,1,12,0.00
2013-7-17,93.4,81.3,71.4,77.2,72.7,67.1,94,77,44,30.13,30.03,15,2,15,0.00
2013-7-18,82.2,75.6,70.5,77.7,72.5,69.6,98,90,82,30.04,29.81,9,1,9,0.40
2013-7-19,83.1,74.3,61.5,75.6,69.4,59.9,98,85,72,29.70,29.55,17,2,17,0.86
2013-7-20,73.2,65.3,54.7,62.8,56.2,46.2,97,75,43,29.96,29.67,9,1,9,0.00
2013-7-21,73.2,61.2,47.1,58.8,53.8,46.4,99,78,56,30.01,29.91,14,2,14,0.00
2013-7-22,85.1,71.4,60.3,69.3,63.1,54.3,92,77,53,29.92,29.59,11,2,11,0.00
2013-7-23,75.0,62.6,52.3,67.8,56.6,47.8,98,81,65,29.88,29.55,12,2,26,0.31
2013-7-24,72.9,60.9,47.7,56.7,50.7,45.5,96,72,44,30.02,29.88,11,1,11,0.00
2013-7-25,78.1,64.5,50.2,61.3,55.2,48.9,97,75,43,30.03,29.93,13,2,13,0.00
2013-7-26,75.6,64.9,58.5,68.9,61.0,54.0,98,88,63,29.97,29.78,20,3,20,0.61
2013-7-27,64.9,59.9,57.0,61.0,58.4,55.6,99,95,85,29.80,29.71,6,0,7,0.06
2013-7-28,68.4,59.3,50.9,56.1,53.9,50.2,99,84,57,29.84,29.68,16,2,17,0.20
2013-7-29,66.7,57.9,52.0,59.5,55.5,51.6,99,92,70,30.12,29.84,6,0,8,0.20
2013-7-30,70.9,62.5,53.2,62.8,58.4,52.7,100,87,66,30.17,30.06,11,1,12,0.00
2013-7-31,77.4,66.5,59.4,65.7,61.0,57.6,97,83,61,30.06,29.81,10,2,12,0.41
2013-8-1,74.5,64.2,56.3,64.6,59.4,55.8,100,86,56,29.84,29.79,8,1,9,0.41
2013-8-2,73.8,62.2,54.9,65.3,58.7,54.1,100,89,61,29.86,29.73,11,1,11,0.07
2013-8-3,65.7,59.4,53.1,58.5,55.1,51.3,100,86,71,30.03,29.86,8,1,8,0.03
2013-8-4,72.9,60.2,49.8,55.8,52.1,47.3,99,77,45,30.15,30.03,9,1,9,0.00
2013-8-5,73.8,60.1,46.6,61.0,54.3,46.0,99,83,45,30.06,29.86,10,1,11,0.00
2013-8-6,76.6,67.9,60.6,66.6,61.4,54.7,95,80,68,29.86,29.73,10,2,12,0.00
2013-8-7,75.4,66.9,56.8,68.0,63.3,55.4,99,89,71,29.91,29.60,14,1,14,0.43
2013-8-8,74.1,62.0,50.4,60.1,54.1,49.8,99,78,51,30.00,29.91,9,1,9,0.00
2013-8-9,75.2,62.5,52.5,62.1,55.3,47.1,97,79,55,29.99,29.82,15,2,18,0.00
2013-8-10,73.8,60.1,46.8,57.4,52.0,44.8,98,77,47,30.08,29.99,11,1,12,0.00
2013-8-11,75.6,64.0,51.1,62.6,55.8,50.0,99,77,48,30.06,29.96,11,1,12,0.00
2013-8-12,77.4,64.6,55.2,65.5,60.2,51.8,98,87,57,29.97,29.80,14,2,16,0.00
2013-8-13,63.0,56.1,51.4,52.3,49.5,45.1,90,79,59,30.05,29.87,14,2,14,0.00
2013-8-14,69.4,58.4,47.1,55.4,51.1,46.6,99,79,53,30.12,30.05,13,1,17,0.00
2013-8-15,76.3,63.1,53.1,62.2,54.0,48.4,95,75,39,30.06,29.99,12,2,12,0.00
2013-8-16,79.5,65.2,54.9,61.3,56.0,49.8,99,76,39,30.15,30.05,8,1,10,0.00
2013-8-17,82.2,66.3,51.1,62.2,55.0,49.3,97,71,33,30.20,30.12,14,1,14,0.00
2013-8-18,83.3,68.6,53.4,60.8,57.2,51.4,98,71,37,30.16,30.02,13,2,13,0.00
2013-8-19,81.1,69.4,59.2,65.8,60.2,56.5,94,74,50,30.03,29.91,15,3,17,0.00
2013-8-20,84.9,74.5,67.5,69.8,65.2,61.5,88,74,50,29.98,29.91,15,3,15,0.00
2013-8-21,88.3,77.3,68.4,70.9,67.3,62.6,88,72,55,29.94,29.78,15,3,18,0.00
2013-8-22,80.1,71.5,58.6,68.9,60.3,48.7,95,70,36,30.05,29.83,9,1,9,0.00
2013-8-23,75.9,63.8,51.3,61.2,54.8,50.4,98,75,44,30.17,30.05,9,1,10,0.00
2013-8-24,81.0,65.4,52.0,62.2,56.8,49.8,95,76,42,30.25,30.14,11,2,11,0.00
2013-8-25,90.5,73.2,59.5,72.5,63.4,56.1,98,73,53,30.15,29.89,19,4,24,0.04
2013-8-26,86.0,75.9,67.6,73.9,70.1,66.0,98,83,59,29.96,29.85,15,2,15,0.12
2013-8-27,77.0,70.2,65.1,73.2,68.6,64.6,99,95,82,29.88,29.79,8,0,8,0.04
2013-8-28,85.5,71.5,61.3,73.2,67.2,61.0,100,88,55,29.98,29.80,7,0,7,0.00
2013-8-29,85.6,73.6,63.9,72.5,68.1,63.1,100,84,59,30.01,29.87,8,1,10,0.01
2013-8-30,75.0,71.4,65.1,72.9,68.3,64.2,98,90,76,29.88,29.67,12,2,13,0.35
2013-8-31,77.4,68.1,61.2,65.8,63.2,60.1,98,85,66,29.83,29.77,9,1,9,0.00
2013-9-1,71.8,65.1,58.6,68.0,63.3,58.3,100,94,82,29.81,29.61,12,1,12,0.06
2013-9-2,61.5,56.1,53.2,61.0,53.6,51.1,98,92,83,29.85,29.69,13,1,13,0.08
2013-9-3,72.3,61.6,49.5,57.9,53.2,44.8,99,76,41,29.94,29.85,12,1,14,0.00
2013-9-4,68.4,61.1,50.5,60.8,54.6,44.2,97,80,53,30.10,29.84,13,2,14,0.00
2013-9-5,64.8,53.9,44.1,49.6,44.4,37.9,98,73,45,30.29,30.10,12,1,13,0.00
2013-9-6,74.1,60.4,45.5,61.5,52.9,43.2,97,78,51,30.19,29.90,16,2,16,0.01
2013-9-7,77.4,68.1,62.4,71.8,65.8,57.7,99,93,81,29.96,29.80,15,2,16,1.16
2013-9-8,68.4,59.4,52.3,58.5,52.8,49.1,99,80,57,30.12,29.96,14,2,14,0.00
2013-9-9,73.8,62.4,50.9,68.4,58.9,49.5,98,89,72,30.03,29.68,10,1,10,0.00
2013-9-10,86.7,74.9,65.7,73.9,69.3,64.6,99,84,61,29.88,29.66,16,2,16,0.67
2013-9-11,77.5,68.8,64.8,70.2,66.1,63.5,99,92,73,29.89,29.82,15,2,15,1.37
2013-9-12,65.8,59.6,52.3,64.8,55.0,47.8,99,85,69,30.01,29.81,11,1,12,0.00
2013-9-13,56.8,49.4,42.3,48.2,41.9,37.2,96,76,52,30.15,30.00,13,1,13,0.00
2013-9-14,67.1,52.5,38.7,55.0,47.5,37.9,99,84,60,30.12,29.95,13,2,14,0.00
2013-9-15,60.6,57.3,48.2,58.5,54.9,46.0,98,92,79,30.17,29.92,13,2,15,0.12
2013-9-16,55.2,47.5,40.3,46.6,40.7,34.0,96,79,48,30.39,30.17,10,1,11,0.12
2013-9-17,66.0,49.3,33.6,51.8,43.0,32.7,98,81,48,30.39,30.15,11,2,11,0.00
2013-9-18,74.7,59.7,45.0,61.5,52.0,42.3,97,77,52,30.15,29.91,9,2,9,0.00
2013-9-19,82.2,70.7,62.2,70.0,64.0,56.3,93,80,66,29.91,29.71,10,2,10,0.00
2013-9-20,71.2,67.9,59.5,68.5,65.5,56.1,96,92,86,29.72,29.57,10,2,16,0.03
2013-9-21,59.4,53.4,44.1,56.1,48.3,41.4,94,83,63,29.86,29.64,11,1,11,0.00
2013-9-22,55.2,46.6,37.4,44.1,40.6,36.1,97,81,56,30.09,29.86,8,1,9,0.00
2013-9-23,62.8,47.3,34.3,49.8,42.2,33.8,99,84,52,30.19,30.08,11,1,13,0.00
2013-9-24,67.5,51.2,38.1,53.4,46.3,37.6,99,85,55,30.14,29.99,11,2,12,0.01
2013-9-25,69.8,52.4,39.6,53.4,45.7,37.4,99,82,32,30.03,29.97,9,1,9,0.00
2013-9-26,73.6,54.2,37.4,57.4,47.3,36.7,99,80,41,30.12,30.01,8,1,8,0.00
2013-9-27,77.5,59.7,44.4,58.6,51.2,43.3,97,76,43,30.19,30.09,9,1,9,0.00
2013-9-28,77.2,63.2,50.4,58.8,53.4,49.5,98,73,42,30.13,29.82,16,3,17,0.00
2013-9-29,68.2,59.0,47.1,60.4,52.5,45.7,98,81,56,29.97,29.78,15,1,15,0.08
2013-9-30,70.5,55.2,39.7,54.7,46.8,39.2,99,77,41,29.97,29.82,10,1,10,0.01
2013-10-1,79.0,64.9,52.2,63.7,57.3,49.1,90,77,53,29.85,29.65,19,4,19,0.00
2013-10-2,71.8,60.6,50.7,61.5,47.8,38.7,94,66,31,30.03,29.76,11,1,14,0.00
2013-10-3,63.7,54.3,46.8,56.3,50.3,43.3,95,86,62,30.03,29.89,18,2,18,0.14
2013-10-4,57.0,55.8,55.0,55.6,54.6,53.8,97,96,92,30.09,29.91,14,3,14,0.35
2013-10-5,55.8,53.7,50.4,54.1,52.1,49.1,99,94,85,30.10,29.89,18,5,20,0.66
2013-10-6,67.6,58.1,51.6,67.6,57.7,51.1,100,99,94,29.91,29.55,16,2,18,1.51
2013-10-7,56.1,50.8,42.3,52.5,48.2,41.5,99,91,73,30.01,29.49,15,2,15,1.51
2013-10-8,68.5,52.7,36.3,50.7,44.7,35.6,99,77,49,30.18,30.01,11,2,12,0.01
2013-10-9,74.5,60.3,52.2,55.9,51.0,47.1,98,73,46,30.20,30.12,14,2,14,0.00
2013-10-10,72.1,54.9,42.3,52.5,47.9,41.5,99,80,41,30.18,30.08,15,2,15,0.00
2013-10-11,70.7,54.7,44.2,55.2,49.3,43.7,99,84,48,30.14,30.03,15,2,15,0.01
2013-10-12,79.3,61.4,45.0,59.9,50.5,43.3,97,71,39,30.04,29.88,14,2,14,0.00
2013-10-13,63.9,53.9,41.2,60.1,47.8,39.2,94,80,68,30.35,29.95,16,1,16,0.00
2013-10-14,59.4,47.0,35.4,45.9,39.9,34.7,99,79,49,30.42,30.27,8,1,8,0.00
2013-10-15,59.4,48.0,36.0,55.0,45.0,34.7,98,90,68,30.27,29.68,16,1,16,0.18
2013-10-16,55.8,52.1,47.7,55.2,50.6,46.0,99,95,86,29.79,29.61,16,2,20,0.13
2013-10-17,53.8,46.4,39.4,46.2,43.1,38.8,99,89,62,29.82,29.70,7,0,8,0.05
2013-10-18,54.0,45.0,36.3,49.6,43.6,35.8,99,95,77,29.77,29.70,14,1,14,0.09
2013-10-19,51.3,43.6,38.5,45.5,41.1,35.2,99,91,58,29.77,29.63,8,1,8,0.20
2013-10-20,53.2,44.3,37.0,43.7,39.8,35.8,99,85,61,29.78,29.68,13,2,14,0.20
2013-10-21,48.2,42.8,33.6,47.7,41.7,32.9,98,96,89,29.71,29.57,19,2,21,0.77
2013-10-22,47.1,38.0,31.8,39.9,34.8,30.7,99,89,65,29.83,29.60,18,2,18,0.32
2013-10-23,45.9,36.1,29.5,37.9,32.9,28.2,96,89,56,29.83,29.76,11,1,11,0.05
2013-10-24,46.2,39.1,33.3,38.5,35.7,32.5,97,88,70,30.08,29.80,9,1,9,0.02
2013-10-25,47.5,38.6,30.7,39.9,33.3,30.2,99,83,56,30.18,29.74,25,3,27,0.04
2013-10-26,46.8,41.8,36.5,42.1,38.5,34.0,97,88,72,29.89,29.50,28,4,28,0.41
2013-10-27,46.8,39.6,31.5,39.7,36.0,30.4,98,87,69,29.95,29.82,16,2,16,0.03
2013-10-28,43.3,34.7,27.1,37.6,28.1,23.0,90,77,58,30.46,29.95,13,2,13,0.00
2013-10-29,39.6,32.1,24.1,33.1,27.3,22.3,96,83,62,30.48,30.22,8,0,8,0.00
2013-10-30,50.0,41.8,34.5,44.8,39.1,32.9,98,91,77,30.23,29.83,7,1,7,0.02
2013-10-31,57.7,52.8,47.7,57.7,52.1,44.6,100,98,83,29.84,28.97,7,1,7,0.43
2013-11-1,57.0,47.4,40.8,57.0,46.4,39.2,100,96,91,29.62,28.86,12,2,13,0.66
2013-11-2,40.8,38.0,35.2,39.6,34.0,28.8,96,85,74,30.12,29.62,12,2,13,0.01
2013-11-3,45.3,36.2,28.9,32.0,29.2,26.1,90,76,55,30.40,30.12,12,2,12,0.00
2013-11-4,52.2,41.3,33.6,34.9,30.6,26.4,88,68,42,30.41,30.15,21,4,22,0.00
2013-11-5,59.0,50.0,44.2,48.2,42.8,32.0,93,77,62,30.22,29.97,14,3,14,0.01
2013-11-6,52.9,45.8,36.9,52.3,44.3,32.9,99,95,82,29.97,29.57,10,3,13,0.59
2013-11-7,40.1,36.3,32.5,34.9,33.2,31.1,97,89,75,30.02,29.91,9,2,9,0.02
2013-11-8,41.0,35.6,32.7,33.8,31.6,29.3,97,86,65,30.16,30.02,7,1,7,0.05
2013-11-9,45.1,39.0,33.4,44.2,36.8,30.6,98,92,81,30.06,29.58,15,3,15,0.32
2013-11-10,41.9,38.8,34.7,37.0,34.2,30.6,95,83,67,30.14,29.69,14,3,14,0.05
2013-11-11,41.2,31.3,26.1,36.7,26.5,18.7,97,83,66,30.33,29.89,18,4,18,0.14
2013-11-12,29.7,26.3,20.7,23.5,20.1,16.2,94,78,61,30.50,30.32,12,2,12,0.03
2013-11-13,42.4,32.9,19.8,32.7,25.5,14.7,94,75,58,30.41,29.82,26,6,26,0.01
2013-11-14,47.1,42.7,38.7,36.7,33.9,30.6,80,71,64,29.85,29.75,21,5,21,0.00
2013-11-15,54.0,44.4,35.8,41.4,38.4,33.3,94,80,60,29.91,29.79,14,3,19,0.00
2013-11-16,54.1,44.8,32.5,52.0,40.8,30.6,96,87,72,29.93,29.50,21,4,21,0.06
2013-11-17,62.1,55.0,44.4,59.5,53.6,43.3,99,95,90,29.52,28.88,23,5,26,1.59
2013-11-18,44.2,35.6,30.4,43.2,29.8,23.5,96,79,69,30.07,29.10,20,5,22,0.42
2013-11-19,34.9,30.0,26.2,25.5,23.7,21.9,90,77,65,30.35,30.07,9,2,11,0.01
2013-11-20,43.5,34.4,27.3,33.1,27.7,23.9,89,78,52,30.35,30.19,16,4,18,0.00
2013-11-21,42.3,39.0,36.0,39.2,35.0,30.6,97,86,77,30.20,30.13,8,1,9,0.02
2013-11-22,39.7,31.8,24.4,39.2,29.3,22.5,98,91,75,30.31,30.13,8,2,9,0.08
2013-11-23,29.8,20.3,16.0,28.0,12.5,4.6,94,72,52,30.47,30.17,14,4,15,0.00
2013-11-24,22.8,18.4,10.6,18.1,13.0,7.5,88,79,69,30.53,30.14,20,3,22,0.01
2013-11-25,35.1,31.0,22.8,32.4,27.0,16.3,94,85,68,30.14,29.79,22,7,32,0.02
2013-11-26,35.1,29.4,20.5,32.7,27.3,16.3,97,92,82,30.01,29.85,13,2,15,0.11
2013-11-27,22.5,19.6,14.7,18.3,13.2,9.0,90,76,65,30.17,29.96,15,3,15,0.11
2013-11-28,22.6,16.0,9.1,18.5,12.8,6.6,93,87,79,30.45,30.17,8,1,10,0.00
2013-11-29,31.6,21.0,8.1,21.7,15.9,5.0,94,81,60,30.62,30.45,9,2,9,0.00
2013-11-30,36.1,31.0,25.3,32.5,26.6,19.8,95,84,77,30.48,30.01,17,3,17,0.00
2013-12-1,33.4,32.0,29.5,32.2,28.3,25.2,96,86,79,30.09,30.01,12,2,12,0.00
2013-12-2,33.1,27.7,17.8,27.0,23.3,15.6,94,84,65,30.01,29.90,5,0,5,0.00
2013-12-3,31.6,25.8,17.8,31.1,24.1,16.0,98,93,87,29.99,29.92,15,3,17,0.03
2013-12-4,42.1,33.8,29.5,41.9,33.3,28.8,99,98,97,29.95,29.40,19,7,25,0.17
2013-12-5,47.7,34.1,23.5,46.9,29.1,16.7,99,82,72,30.02,29.38,30,6,30,0.18
2013-12-6,26.6,20.7,16.0,18.7,13.8,11.1,88,74,63,30.31,30.02,14,2,17,0.00
2013-12-7,22.6,18.6,17.2,14.7,11.2,7.3,84,73,58,30.51,30.31,14,2,15,0.00
2013-12-8,21.0,17.0,11.8,19.6,12.9,7.7,94,84,74,30.52,30.05,8,1,9,0.03
2013-12-9,28.8,22.9,12.0,25.9,21.1,10.2,96,93,82,30.05,29.70,24,3,24,0.13
2013-12-10,18.7,13.4,10.9,15.8,11.1,8.6,93,90,84,30.00,29.73,10,2,17,0.03
2013-12-11,17.1,12.8,9.0,10.8,7.1,4.3,88,78,66,30.31,30.00,13,2,14,0.00
2013-12-12,18.9,14.7,9.0,15.4,10.6,5.5,91,83,73,30.29,29.99,8,2,15,0.00
2013-12-13,18.9,8.9,0.9,12.9,4.1,-2.7,88,81,73,30.43,30.00,11,2,11,0.00
2013-12-14,19.8,14.5,6.3,17.6,12.0,0.3,94,90,74,30.43,29.91,16,4,17,0.07
2013-12-15,21.4,16.5,10.0,20.1,14.9,7.9,95,93,91,29.97,29.66,9,1,10,0.10
2013-12-16,13.5,5.3,-7.6,10.2,2.3,-11.0,91,87,83,30.17,29.96,12,1,12,0.01
2013-12-17,24.4,19.5,12.6,22.6,17.6,10.4,95,92,89,29.96,29.77,11,2,11,0.01
2013-12-18,23.7,21.4,18.0,21.4,18.5,14.9,96,89,84,29.99,29.73,11,2,13,0.00
2013-12-19,30.0,24.8,21.7,27.3,21.5,18.9,91,87,81,30.06,29.69,12,2,13,0.00
2013-12-20,24.1,21.5,18.3,22.8,19.7,16.3,95,93,86,30.02,29.84,13,3,14,0.15
2013-12-21,25.9,24.6,22.6,23.5,22.6,21.0,95,92,86,30.00,29.81,20,3,20,0.03
2013-12-22,25.3,19.3,12.7,21.7,17.3,10.9,94,92,83,30.06,29.81,27,7,27,0.15
2013-12-23,12.7,10.2,6.1,10.9,7.9,3.6,92,90,87,30.35,30.06,7,1,7,0.02
2013-12-24,11.8,2.6,-4.5,6.3,-0.6,-7.4,90,86,77,30.50,30.35,6,0,6,0.00
2013-12-25,22.5,15.2,-2.6,21.0,13.0,-5.4,95,91,87,30.45,30.01,18,4,20,0.01
2013-12-26,24.3,19.4,14.0,20.7,17.4,10.9,94,91,83,30.19,29.98,11,1,11,0.03
2013-12-27,36.0,19.6,5.2,32.9,17.1,2.7,93,90,86,30.22,29.83,13,2,16,0.01
2013-12-28,41.5,34.2,28.9,34.3,31.7,27.9,97,91,74,29.96,29.72,13,1,13,0.00
2013-12-29,31.5,17.5,2.8,30.7,14.7,-0.6,97,89,78,30.04,29.67,16,3,17,0.00
2013-12-30,12.7,5.1,-4.7,10.4,2.4,-7.8,91,88,80,30.23,30.04,6,1,6,0.00
2013-12-31,13.3,8.2,2.8,8.2,3.7,-2.7,91,82,70,30.29,29.98,14,2,14,0.00
2014-1-1,8.1,2.2,-3.8,3.2,-1.0,-7.1,90,86,76,30.48,30.29,10,1,10,0.00
2014-1-2,8.6,0.9,-10.1,4.1,-2.4,-13.5,91,86,77,30.42,30.32,12,1,12,0.00